Weather History for Brownwood, TX

Change the Weather History Date:

Sunday, November 11, 2012

  Actual Average (KABI) Record (KABI)
Temperature  
Mean Temperature 58 °F 57 °F  
Max Temperature 71 °F 68 °F 87 °F (1911)
Min Temperature 44 °F 45 °F 18 °F (1950)
Degree Days  
Heating Degree Days 6 9  
Month to date heating degree days 83  
Since 1 July heating degree days 187  
Cooling Degree Days 0 1  
Month to date cooling degree days 13  
Year to date cooling degree days 2402  
Growing Degree Days 8 (Base 50)    
Moisture  
Dew Point 39 °F    
Average Humidity 44    
Maximum Humidity 83    
Minimum Humidity 17    
Precipitation  
Precipitation 0.00 in 0.06 in 0.42 in (1939)
Month to date precipitation 0.64  
Year to date precipitation 22.82  
Sea Level Pressure  
Sea Level Pressure 29.98 in    
Wind  
Wind Speed 15 mph (WNW)    
Max Wind Speed 21 mph    
Max Gust Speed 29 mph    
Visibility 10 miles    
Events Rain    
T = Trace of Precipitation, MM = Missing Value Source: NWS Daily Summary

Daily Weather History Graph

Daily Weather History Graph

Search for Another Location

Airport:

Trip Planner

Search our weather history database for the weather conditions in past years. The results will help you decide how hot, cold, wet, or windy it might be!

Date:

Astronomy

Nov. 11, 2012 Rise Set
Actual Time 7:01 AM CST 5:38 PM CST
Civil Twilight 6:35 AM CST 6:04 PM CST
Nautical Twilight 6:06 AM CST 6:33 PM CST
Astronomical Twilight 5:37 AM CST 7:02 PM CST
Moon 4:24 AM CST (11/11) 3:57 PM CST (11/11)
Length of Visible Light 11h 28m
Length of Day
10h 37m
Waning Crescent, 7% of the Moon is Illuminated
Nov 11
Waning Crescent
Nov 13
New
Nov 20
First Quarter
Nov 28
Full
Dec 6
Last Quarter

Hourly Weather History & Observations

Time (CST) Temp. Windchill Dew Point Humidity Pressure Visibility Wind Dir Wind Speed Gust Speed Precip Events Conditions
12:35 AM 71.6 °F - 60.8 °F 69% 29.79 in 10.0 mi South 20.7 mph 28.8 mph N/A   Overcast
12:55 AM 69.8 °F - 60.8 °F 73% 29.79 in 10.0 mi South 17.3 mph 28.8 mph N/A   Overcast
1:15 AM 69.8 °F - 60.8 °F 73% 29.78 in 10.0 mi South 20.7 mph 27.6 mph N/A   Overcast
1:35 AM 69.8 °F - 60.8 °F 73% 29.79 in 10.0 mi South 18.4 mph 27.6 mph N/A   Overcast
1:55 AM 69.8 °F - 60.8 °F 73% 29.78 in 10.0 mi South 16.1 mph 23.0 mph N/A   Overcast
2:15 AM 69.8 °F - 60.8 °F 73% 29.78 in 10.0 mi SSE 18.4 mph 25.3 mph N/A   Overcast
2:35 AM 69.8 °F - 59.0 °F 68% 29.78 in 10.0 mi SSE 12.7 mph 24.2 mph N/A   Overcast
2:55 AM 69.8 °F - 59.0 °F 68% 29.77 in 10.0 mi South 16.1 mph 20.7 mph N/A   Overcast
3:15 AM 71.6 °F - 59.0 °F 64% 29.77 in 10.0 mi South 18.4 mph 24.2 mph N/A   Overcast
3:35 AM 71.6 °F - 59.0 °F 64% 29.78 in 10.0 mi South 18.4 mph 25.3 mph N/A   Overcast
3:55 AM 71.6 °F - 59.0 °F 64% 29.78 in 10.0 mi South 12.7 mph 27.6 mph N/A   Overcast
4:15 AM 71.6 °F - 59.0 °F 64% 29.79 in 10.0 mi South 19.6 mph 24.2 mph N/A   Overcast
4:35 AM 71.6 °F - 59.0 °F 64% 29.79 in 10.0 mi South 15.0 mph 23.0 mph N/A   Overcast
4:55 AM 71.6 °F - 59.0 °F 64% 29.79 in 10.0 mi South 19.6 mph 25.3 mph N/A   Overcast
5:15 AM 71.6 °F - 59.0 °F 64% 29.79 in 10.0 mi South 17.3 mph 24.2 mph N/A   Overcast
5:55 AM 71.6 °F - 59.0 °F 64% 29.81 in 10.0 mi South 13.8 mph 24.2 mph N/A   Overcast
6:15 AM 71.6 °F - 59.0 °F 64% 29.83 in 10.0 mi SSW 11.5 mph - N/A   Overcast
6:35 AM 71.6 °F - 59.0 °F 64% 29.84 in 10.0 mi SW 12.7 mph - N/A   Overcast
6:55 AM 71.6 °F - 59.0 °F 64% 29.86 in 10.0 mi SW 9.2 mph - N/A   Overcast
7:55 AM 69.8 °F - 60.8 °F 73% 29.90 in 5.0 mi SW 9.2 mph - N/A Rain Light Rain
8:15 AM 68.0 °F - 60.8 °F 78% 29.91 in 10.0 mi SW 11.5 mph - N/A   Overcast
8:55 AM 68.0 °F - 62.6 °F 83% 29.92 in 10.0 mi SW 8.1 mph - N/A   Mostly Cloudy
9:15 AM 64.4 °F - 44.6 °F 49% 29.95 in 10.0 mi NNW 15.0 mph 23.0 mph N/A   Overcast
9:55 AM 64.4 °F - 41.0 °F 42% 29.97 in 10.0 mi NW 11.5 mph - N/A   Overcast
10:15 AM 64.4 °F - 39.2 °F 40% 29.97 in 10.0 mi NNW 10.4 mph - N/A   Overcast
10:35 AM 66.2 °F - 35.6 °F 32% 29.98 in 10.0 mi NNW 13.8 mph 18.4 mph N/A   Overcast
10:55 AM 62.6 °F - 37.4 °F 39% 29.99 in 10.0 mi NW 12.7 mph 20.7 mph N/A Rain Light Rain
11:15 AM 66.2 °F - 33.8 °F 30% 29.99 in 10.0 mi NNW 10.4 mph 16.1 mph N/A   Overcast
11:35 AM 66.2 °F - 28.4 °F 24% 29.98 in 10.0 mi NNW 16.1 mph - N/A   Overcast
11:55 AM 68.0 °F - 24.8 °F 20% 29.98 in 10.0 mi NW 19.6 mph - N/A   Overcast
12:15 PM 68.0 °F - 24.8 °F 20% 29.98 in 10.0 mi NW 18.4 mph 21.9 mph N/A   Overcast
12:35 PM 68.0 °F - 23.0 °F 18% 29.98 in 10.0 mi NNW 17.3 mph - N/A   Overcast
12:55 PM 69.8 °F - 23.0 °F 17% 29.97 in 10.0 mi NNW 16.1 mph 19.6 mph N/A   Mostly Cloudy
1:15 PM 68.0 °F - 24.8 °F 20% 29.97 in 10.0 mi NW 10.4 mph 17.3 mph N/A   Mostly Cloudy
1:35 PM 68.0 °F - 24.8 °F 20% 29.97 in 10.0 mi NW 15.0 mph 19.6 mph N/A   Overcast
1:55 PM 69.8 °F - 24.8 °F 18% 29.97 in 10.0 mi NW 15.0 mph 20.7 mph N/A   Overcast
2:15 PM 71.6 °F - 26.6 °F 19% 29.98 in 10.0 mi NNW 12.7 mph 19.6 mph N/A   Overcast
2:35 PM 69.8 °F - 26.6 °F 20% 29.98 in 10.0 mi WNW 12.7 mph 19.6 mph N/A   Mostly Cloudy
2:55 PM 68.0 °F - 26.6 °F 21% 29.99 in 10.0 mi NW 15.0 mph - N/A   Scattered Clouds
3:15 PM 68.0 °F - 26.6 °F 21% 30.00 in 10.0 mi NW 13.8 mph - N/A   Mostly Cloudy
3:35 PM 68.0 °F - 28.4 °F 23% 30.01 in 10.0 mi NW 15.0 mph 20.7 mph N/A   Overcast
3:55 PM 68.0 °F - 26.6 °F 21% 30.01 in 10.0 mi NW 16.1 mph - N/A   Mostly Cloudy
4:15 PM 68.0 °F - 26.6 °F 21% 30.02 in 10.0 mi NW 12.7 mph 21.9 mph N/A   Mostly Cloudy
4:35 PM 68.0 °F - 26.6 °F 21% 30.03 in 10.0 mi NNW 11.5 mph - N/A   Mostly Cloudy
4:55 PM 66.2 °F - 28.4 °F 24% 30.04 in 10.0 mi WNW 9.2 mph - N/A   Mostly Cloudy
5:15 PM 66.2 °F - 28.4 °F 24% 30.05 in 10.0 mi NW 10.4 mph - N/A   Mostly Cloudy
5:55 PM 64.4 °F - 28.4 °F 26% 30.07 in 10.0 mi WNW 8.1 mph - N/A   Overcast
6:15 PM 62.6 °F - 28.4 °F 27% 30.08 in 10.0 mi NW 9.2 mph - N/A   Mostly Cloudy
6:55 PM 60.8 °F - 26.6 °F 27% 30.11 in 10.0 mi NW 11.5 mph 18.4 mph N/A   Scattered Clouds
7:15 PM 60.8 °F - 23.0 °F 23% 30.13 in 10.0 mi NW 10.4 mph - N/A   Clear
7:35 PM 59.0 °F - 19.4 °F 22% 30.14 in 10.0 mi NW 11.5 mph - N/A   Scattered Clouds
7:55 PM 59.0 °F - 15.8 °F 19% 30.15 in 10.0 mi NW 16.1 mph 21.9 mph N/A   Mostly Cloudy
8:15 PM 57.2 °F - 15.8 °F 20% 30.17 in 10.0 mi NW 10.4 mph - N/A   Overcast
8:35 PM 55.4 °F - 15.8 °F 21% 30.18 in 10.0 mi NW 9.2 mph - N/A   Overcast
8:55 PM 55.4 °F - 17.6 °F 23% 30.19 in 10.0 mi NNW 6.9 mph - N/A   Overcast
9:35 PM 53.6 °F - 19.4 °F 26% 30.22 in 10.0 mi North 13.8 mph 19.6 mph N/A   Partly Cloudy
9:55 PM 51.8 °F - 32.0 °F 47% 30.24 in 10.0 mi North 11.5 mph - N/A   Scattered Clouds
10:15 PM 50.0 °F - 37.4 °F 62% 30.25 in 10.0 mi North 8.1 mph 16.1 mph N/A   Partly Cloudy
10:35 PM 48.2 °F - 39.2 °F 71% 30.26 in 10.0 mi North 9.2 mph 16.1 mph N/A   Partly Cloudy
10:55 PM 48.2 °F - 37.4 °F 66% 30.27 in 10.0 mi North 10.4 mph - N/A   Clear
11:15 PM 46.4 °F 43.5 °F 37.4 °F 71% 30.27 in 10.0 mi North 5.8 mph - N/A   Clear
11:55 PM 44.6 °F 40.2 °F 37.4 °F 76% 30.29 in 10.0 mi North 8.1 mph - N/A   Partly Cloudy